When you browse on this site, cookies collect data to enhance your experience and personalize the content and advertising you see.
Visit our Privacy Policy to learn more. By continuing to use the site, you agree to this use of cookies and data.
  • In Germany
  • List of Countries
  • For 7 days
  • Water Temperature
  • Satellite Maps
  • Weather Map
  • Weather Widgets
  • user-avatar
    Login

    Hourly Weather Generalskoe

    Today, 19 November, Monday

    Time Temperature Precipitation Wind Pressure Humidity
    00:00 -3°C° 0 mm 2 mps 768 mmHg 84%
    01:00 -3°C° 0 mm 2 mps 767 mmHg 85%
    02:00 -4°C° 0 mm 2 mps 767 mmHg 86%
    03:00 -4°C° 0 mm 2 mps 767 mmHg 87%
    04:00 -4°C° 0 mm 2 mps 767 mmHg 88%
    05:00 -5°C° 0 mm 2 mps 767 mmHg 89%
    06:00 -5°C° 0 mm 2 mps 767 mmHg 90%
    07:00 -5°C° 0 mm 3 mps 767 mmHg 90%
    08:00 -5°C° 0 mm 3 mps 767 mmHg 89%
    09:00 -5°C° 0 mm 3 mps 767 mmHg 89%
    10:00 -4°C° 0 mm 3 mps 767 mmHg 89%
    11:00 -3°C° 0 mm 4 mps 767 mmHg 89%
    12:00 -2°C° 0 mm 4 mps 767 mmHg 89%
    13:00 -1°C° 0 mm 4 mps 767 mmHg 90%
    14:00 -1°C° 0 mm 4 mps 767 mmHg 90%
    15:00 -1°C° 0 mm 4 mps 767 mmHg 90%
    16:00 -2°C° 0 mm 4 mps 767 mmHg 90%
    17:00 -2°C° 0 mm 4 mps 766 mmHg 89%
    18:00 -3°C° 0 mm 4 mps 766 mmHg 89%
    19:00 -2°C° 0 mm 4 mps 766 mmHg 87%
    20:00 -2°C° 0 mm 5 mps 766 mmHg 85%
    21:00 -2°C° 0 mm 5 mps 765 mmHg 83%
    22:00 -2°C° 0.1 mm 5 mps 765 mmHg 84%
    23:00 -2°C° 0.1 mm 4 mps 765 mmHg 84%

    Tomorrow, 20 November, Tuesday

    Time Temperature Precipitation Wind Pressure Humidity
    00:00 -2°C° 0.1 mm 4 mps 765 mmHg 85%
    01:00 -2°C° 0.5 mm 4 mps 764 mmHg 87%
    02:00 -1°C° 0.5 mm 4 mps 764 mmHg 89%
    03:00 -1°C° 0.5 mm 4 mps 764 mmHg 92%
    04:00 -1°C° 0.3 mm 5 mps 763 mmHg 92%
    05:00 -1°C° 0.3 mm 5 mps 763 mmHg 93%
    06:00 -2°C° 0.3 mm 6 mps 763 mmHg 93%
    07:00 -1°C° 0.6 mm 5 mps 762 mmHg 94%
    08:00 -1°C° 0.6 mm 5 mps 762 mmHg 95%
    09:00 -1°C° 0.6 mm 5 mps 762 mmHg 95%
    10:00 -1°C° 0.4 mm 6 mps 762 mmHg 96%
    11:00 -1°C° 0.4 mm 6 mps 762 mmHg 96%
    12:00 -1°C° 0.4 mm 6 mps 761 mmHg 97%
    13:00 -1°C° 0.4 mm 6 mps 761 mmHg 97%
    14:00 -1°C° 0.4 mm 6 mps 761 mmHg 97%
    15:00 0°C° 0.4 mm 5 mps 761 mmHg 97%
    16:00 -1°C° 1 mm 6 mps 761 mmHg 97%
    17:00 -1°C° 1 mm 6 mps 761 mmHg 96%
    18:00 -1°C° 1 mm 6 mps 761 mmHg 95%
    19:00 -1°C° 0.1 mm 6 mps 761 mmHg 95%
    20:00 -1°C° 0.1 mm 6 mps 762 mmHg 94%
    21:00 0°C° 0.1 mm 5 mps 762 mmHg 93%
    22:00 -1°C° 0 mm 5 mps 762 mmHg 92%
    23:00 -1°C° 0 mm 4 mps 763 mmHg 91%

    Day after tomorrow, 21 November, Wednesday

    Time Temperature Precipitation Wind Pressure Humidity
    00:00 -2°C° 0 mm 4 mps 763 mmHg 90%
    01:00 -2°C° 0 mm 4 mps 763 mmHg 89%
    02:00 -3°C° 0 mm 4 mps 764 mmHg 88%
    03:00 -3°C° 0 mm 4 mps 764 mmHg 88%
    04:00 -3°C° 0 mm 4 mps 764 mmHg 87%
    05:00 -4°C° 0 mm 4 mps 764 mmHg 86%
    06:00 -4°C° 0 mm 4 mps 764 mmHg 86%
    07:00 -4°C° 0 mm 4 mps 764 mmHg 84%
    08:00 -4°C° 0 mm 4 mps 764 mmHg 83%
    09:00 -3°C° 0 mm 4 mps 764 mmHg 82%
    10:00 -3°C° 0 mm 4 mps 764 mmHg 82%
    11:00 -2°C° 0 mm 4 mps 764 mmHg 82%
    12:00 -2°C° 0 mm 4 mps 764 mmHg 81%
    13:00 -2°C° 0 mm 4 mps 764 mmHg 82%
    14:00 -2°C° 0 mm 4 mps 764 mmHg 83%
    15:00 -1°C° 0 mm 4 mps 763 mmHg 84%
    16:00 -2°C° 0 mm 4 mps 763 mmHg 86%
    17:00 -3°C° 0 mm 4 mps 764 mmHg 87%
    18:00 -4°C° 0 mm 4 mps 764 mmHg 89%
    19:00 -4°C° 0 mm 4 mps 764 mmHg 88%
    20:00 -5°C° 0 mm 3 mps 764 mmHg 88%
    21:00 -5°C° 0 mm 3 mps 764 mmHg 88%
    22:00 -5°C° 0 mm 3 mps 764 mmHg 87%
    23:00 -5°C° 0 mm 3 mps 764 mmHg 87%

    22 November, Thursday

    Time Temperature Precipitation Wind Pressure Humidity
    00:00 -5°C° 0 mm 3 mps 764 mmHg 86%
    01:00 -5°C° 0 mm 3 mps 764 mmHg 86%
    02:00 -6°C° 0 mm 3 mps 764 mmHg 86%
    03:00 -6°C° 0 mm 3 mps 764 mmHg 86%
    04:00 -6°C° 0 mm 3 mps 764 mmHg 86%
    05:00 -6°C° 0 mm 3 mps 764 mmHg 86%
    06:00 -6°C° 0 mm 3 mps 764 mmHg 86%
    07:00 -6°C° 0 mm 3 mps 764 mmHg 86%
    08:00 -6°C° 0 mm 3 mps 764 mmHg 86%
    09:00 -5°C° 0 mm 3 mps 765 mmHg 86%
    10:00 -4°C° 0 mm 3 mps 764 mmHg 85%
    11:00 -4°C° 0 mm 3 mps 764 mmHg 84%
    12:00 -2°C° 0 mm 3 mps 764 mmHg 82%
    13:00 -2°C° 0 mm 3 mps 764 mmHg 83%
    14:00 -2°C° 0 mm 3 mps 764 mmHg 84%
    15:00 -2°C° 0 mm 3 mps 764 mmHg 84%
    16:00 -2°C° 0 mm 3 mps 764 mmHg 86%
    17:00 -4°C° 0 mm 3 mps 764 mmHg 88%
    18:00 -4°C° 0 mm 2 mps 764 mmHg 89%
    19:00 -4°C° 0 mm 2 mps 764 mmHg 89%
    20:00 -5°C° 0 mm 2 mps 764 mmHg 88%
    21:00 -5°C° 0 mm 2 mps 765 mmHg 87%
    22:00 -5°C° 0 mm 2 mps 765 mmHg 86%
    23:00 -6°C° 0 mm 3 mps 764 mmHg 85%

    23 November, Friday

    Time Temperature Precipitation Wind Pressure Humidity
    00:00 -6°C° 0 mm 3 mps 764 mmHg 84%
    01:00 -6°C° 0 mm 3 mps 764 mmHg 83%
    02:00 -6°C° 0 mm 3 mps 765 mmHg 83%
    03:00 -6°C° 0 mm 3 mps 765 mmHg 83%
    04:00 -6°C° 0 mm 3 mps 765 mmHg 83%
    05:00 -6°C° 0 mm 3 mps 765 mmHg 84%
    06:00 -6°C° 0 mm 3 mps 766 mmHg 85%
    07:00 -6°C° 0 mm 3 mps 766 mmHg 85%
    08:00 -6°C° 0 mm 3 mps 767 mmHg 86%
    09:00 -5°C° 0 mm 3 mps 768 mmHg 86%
    10:00 -4°C° 0 mm 3 mps 768 mmHg 85%
    11:00 -2°C° 0 mm 3 mps 769 mmHg 83%
    12:00 -1°C° 0 mm 3 mps 769 mmHg 81%
    13:00 -1°C° 0 mm 3 mps 769 mmHg 82%
    14:00 -1°C° 0 mm 3 mps 770 mmHg 83%
    15:00 -1°C° 0 mm 3 mps 770 mmHg 84%
    16:00 -2°C° 0 mm 3 mps 770 mmHg 85%
    17:00 -4°C° 0 mm 3 mps 771 mmHg 87%
    18:00 -4°C° 0 mm 2 mps 771 mmHg 89%
    19:00 -4°C° 0 mm 2 mps 772 mmHg 88%
    20:00 -4°C° 0 mm 2 mps 772 mmHg 87%
    21:00 -5°C° 0 mm 2 mps 773 mmHg 85%
    22:00 -5°C° 0 mm 2 mps 773 mmHg 84%
    23:00 -5°C° 0 mm 2 mps 773 mmHg 82%

    24 November, Saturday

    Time Temperature Precipitation Wind Pressure Humidity
    00:00 -5°C° 0 mm 2 mps 773 mmHg 81%
    01:00 -5°C° 0 mm 2 mps 772 mmHg 80%
    02:00 -6°C° 0 mm 2 mps 772 mmHg 79%
    03:00 -4°C° 0 mm 1 mps 772 mmHg 79%
    04:00 -4°C° 0 mm 1 mps 772 mmHg 78%
    05:00 -4°C° 0 mm 1 mps 772 mmHg 78%
    06:00 -4°C° 0 mm 1 mps 772 mmHg 78%
    07:00 -4°C° 0 mm 1 mps 772 mmHg 78%
    08:00 -3°C° 0 mm 1 mps 772 mmHg 77%
    09:00 -3°C° 0 mm 1 mps 772 mmHg 77%
    10:00 -2°C° 0 mm 1 mps 772 mmHg 74%
    11:00 -1°C° 0 mm 1 mps 772 mmHg 72%
    12:00 0°C° 0 mm 1 mps 771 mmHg 70%
    13:00 0°C° 0 mm 1 mps 771 mmHg 71%
    14:00 0°C° 0 mm 1 mps 771 mmHg 73%
    15:00 0°C° 0 mm 1 mps 770 mmHg 74%
    16:00 -1°C° 0 mm 1 mps 770 mmHg 76%
    17:00 -2°C° 0 mm 1 mps 770 mmHg 78%
    18:00 -3°C° 0 mm 1 mps 770 mmHg 79%
    19:00 -3°C° 0 mm 1 mps 769 mmHg 80%
    20:00 -3°C° 0 mm 1 mps 769 mmHg 80%
    21:00 -3°C° 0 mm 1 mps 769 mmHg 80%
    22:00 -3°C° 0 mm 1 mps 769 mmHg 79%
    23:00 -3°C° 0 mm 1 mps 769 mmHg 79%
    Show more